Hourly Data Report for May 28, 2020

TORONTO CITY
ONTARIO
Current Station Operator: ECCC - MSC

43°40'00.000" N
79°24'00.000" W
112.50 m
6158355
71508
XTO

Download Data

Hourly Data (May 2020)
Hourly Data Report for May 28, 2020
TIME
LST
Temp Definition
°C
Dew Point Definition
°C
Rel Hum Definition
%
Precip. Amount Definition
mm

Wind Dir Definition
10's deg

Wind Spd Definition
km/h
Visibility Definition
km
Stn Press Definition
kPa
Hmdx Definition


Wind Chill Definition


Weather Definition


00:00 22.5 13.9 58 0.0       100.33 26   LegendNANA
01:00 21.6 13.8 61 0.0       100.31 25   LegendNANA
02:00 21.3 14.0 63 0.0       100.28 25   LegendNANA
03:00 20.7 14.1 65 0.0       100.27     LegendNANA
04:00 20.8 14.7 68 0.0       100.27 25   LegendNANA
05:00 20.9 14.5 67 0.0       100.28 25   LegendNANA
06:00 21.3 14.7 66 0.0       100.24 25   LegendNANA
07:00 20.5 14.5 68 0.0       100.22     LegendNANA
08:00 20.5 14.6 69 0.0       100.22     LegendNANA
09:00 21.5 15.0 66 0.0       100.21 25   LegendNANA
10:00 22.6 15.2 63 0.0       100.14 27   LegendNANA
11:00 23.3 14.6 58 0.0       100.07 27   LegendNANA
12:00 22.2 15.3 65 0.0       100.04 26   LegendNANA
13:00 20.6 17.5 82 2.1       99.97 26   LegendNANA
14:00 19.6 17.2 86 2.2       99.90     LegendNANA
15:00 19.2 17.2 88 0.7       99.82     LegendNANA
16:00 19.7 17.7 88 0.8       99.79     LegendNANA
17:00 20.0 18.1 88 0.9       99.78 26   LegendNANA
18:00 19.4 17.6 89 0.5       99.77     LegendNANA
19:00 18.6 16.8 89 0.0       99.79     LegendNANA
20:00 18.5 16.7 90 0.0       99.79     LegendNANA
21:00 18.8 17.1 90 0.0       99.79     LegendNANA
22:00 18.4 16.7 90 0.0       99.79     LegendNANA
23:00 18.4 16.8 90 0.0       99.74     LegendNANA

Notes on Data Quality.

Legend

  • E = Estimated
  • M = Missing
  • NA = Not Available*
  • [empty] = Indicates an unobserved value
Date modified: